Overview Statistics Trail Chart Weather Telemetry Raw packets
 

This is the latest recevied weather packets stored in our database for station/object YB2VNE-13. If no packets are shown the sender has not sent any weather packets the latest 10 day(s).

<< 26 27 28 29 30 31 32 >>
Time Temp. Humidity Pressure Rain* Wind** Luminosity Snow
1788413199 30° C 56% 997 hPa - - 0 W/m² -
1788412875 30.56° C 55% 997 hPa - - 0 W/m² -
1788412551 30° C 56% 997 hPa - - 0 W/m² -
1788412227 30° C 57% 997 hPa - - 0 W/m² -
1788411903 30.56° C 56% 997 hPa - - 0 W/m² -
1788411579 30° C 56% 998 hPa - - 0 W/m² -
1788411255 30° C 52% 998 hPa - - 0 W/m² -
1788410931 30° C 51% 998 hPa - - 0 W/m² -
1788410607 29.44° C 53% 998 hPa - - 0 W/m² -
1788410283 29.44° C 54% 998 hPa - - 0 W/m² -
1788409959 29.44° C 53% 998 hPa - - 0 W/m² -
1788409635 29.44° C 53% 998 hPa - - 0 W/m² -
1788409311 29.44° C 54% 998 hPa - - 0 W/m² -
1788408987 29.44° C 54% 998 hPa - - 0 W/m² -
1788408663 29.44° C 55% 998 hPa - - 0 W/m² -
1788408340 29.44° C 55% 999 hPa - - 0 W/m² -
1788408016 28.89° C 57% 999 hPa - - 0 W/m² -
1788407692 28.89° C 57% 999 hPa - - 0 W/m² -
1788407368 28.89° C 58% 999 hPa - - 0 W/m² -
1788407044 28.89° C 56% 999 hPa - - 0 W/m² -
1788406720 28.89° C 58% 999 hPa - - 0 W/m² -
1788406396 28.33° C 58% 999 hPa - - 0 W/m² -
1788406073 28.89° C 57% 999 hPa - - 0 W/m² -
1788405748 28.33° C 59% 999 hPa - - 0 W/m² -
1788405425 28.33° C 60% 999 hPa - - 0 W/m² -

* Rain since midnight (hover to see other rain measurements)
** Current wind speed in m/s (hover to see current wind gust speed)